TimeEST,TemperatureF,Dew PointF,Humidity,Sea Level PressureIn,VisibilityMPH,Wind Direction,Wind SpeedMPH,Gust SpeedMPH,PrecipitationIn,Events,Conditions,WindDirDegrees,DateUTC
12:54 AM,48.0,37.0,66,30.40,10.0,East,5.8,-,N/A,,Overcast,80,2014-01-10 05:54:00
1:54 AM,48.0,37.9,68,30.38,10.0,East,5.8,-,N/A,,Mostly Cloudy,90,2014-01-10 06:54:00
2:54 AM,46.9,39.0,74,30.36,10.0,ENE,4.6,-,N/A,,Overcast,70,2014-01-10 07:54:00
3:54 AM,48.0,39.0,71,30.35,10.0,NE,4.6,-,N/A,,Overcast,50,2014-01-10 08:54:00
4:54 AM,46.9,41.0,80,30.34,10.0,NNE,5.8,-,N/A,,Overcast,30,2014-01-10 09:54:00
5:54 AM,46.9,39.9,77,30.33,10.0,ENE,3.5,-,N/A,,Overcast,60,2014-01-10 10:54:00
6:54 AM,48.0,41.0,77,30.32,10.0,North,-9999.0,-,N/A,,Unknown,0,2014-01-10 11:54:00
7:54 AM,48.9,42.1,77,30.33,10.0,NNE,3.5,-,N/A,,Overcast,30,2014-01-10 12:54:00
8:54 AM,50.0,43.0,77,30.33,10.0,East,4.6,-,N/A,,Overcast,90,2014-01-10 13:54:00
9:54 AM,54.0,46.9,77,30.34,7.0,Calm,Calm,-,0.00,Rain,Light Rain,0,2014-01-10 14:54:00
10:11 AM,53.1,48.9,86,30.33,1.8,Calm,Calm,-,0.04,Rain,Rain,0,2014-01-10 15:11:00
10:25 AM,52.0,50.0,93,30.33,1.5,North,3.5,-,0.09,Rain,Rain,360,2014-01-10 15:25:00
10:34 AM,52.0,50.0,93,30.33,2.0,NNE,5.8,-,0.11,Rain,Rain,30,2014-01-10 15:34:00
10:46 AM,52.0,50.0,93,30.32,4.0,NE,6.9,-,0.11,Rain,Light Rain,40,2014-01-10 15:46:00
10:54 AM,52.0,51.1,97,30.32,6.0,NNE,5.8,-,0.12,Rain,Light Rain,30,2014-01-10 15:54:00
11:54 AM,57.9,55.0,90,30.27,10.0,East,5.8,-,0.00,,Overcast,100,2014-01-10 16:54:00
12:54 PM,63.0,57.9,84,30.21,10.0,East,5.8,-,N/A,,Overcast,100,2014-01-10 17:54:00
1:54 PM,68.0,57.9,70,30.18,10.0,SE,9.2,-,N/A,,Overcast,140,2014-01-10 18:54:00
2:54 PM,69.1,59.0,70,30.17,10.0,SSE,13.8,-,N/A,,Mostly Cloudy,150,2014-01-10 19:54:00
3:54 PM,68.0,60.1,76,30.16,10.0,SE,12.7,-,N/A,,Overcast,140,2014-01-10 20:54:00
4:54 PM,66.9,60.1,79,30.15,10.0,SE,9.2,-,0.00,,Overcast,140,2014-01-10 21:54:00
5:54 PM,64.0,61.0,90,30.13,6.0,ESE,12.7,-,0.01,Rain,Light Rain,120,2014-01-10 22:54:00
6:21 PM,64.0,62.1,93,30.14,1.8,SSE,4.6,-,0.07,Rain,Heavy Rain,160,2014-01-10 23:21:00
6:28 PM,64.0,62.1,93,30.14,1.5,Calm,Calm,-,0.10,Rain,Rain,0,2014-01-10 23:28:00
6:32 PM,64.0,62.1,93,30.13,2.0,NNE,4.6,-,0.11,Rain,Rain,20,2014-01-10 23:32:00
6:40 PM,63.0,61.0,93,30.14,5.0,WSW,10.4,-,0.12,Rain,Light Rain,250,2014-01-10 23:40:00
6:54 PM,64.0,62.1,93,30.14,3.0,Variable,4.6,-,0.18,Rain,Light Rain,0,2014-01-10 23:54:00
6:58 PM,64.0,63.0,96,30.14,1.8,Variable,4.6,-,0.02,Rain,Rain,0,2014-01-10 23:58:00
7:01 PM,64.0,63.0,96,30.14,1.5,South,6.9,-,0.03,Rain,Rain,190,2014-01-11 00:01:00
7:04 PM,64.0,63.0,96,30.14,2.0,SW,6.9,-,0.03,Rain,Light Rain,220,2014-01-11 00:04:00
7:14 PM,63.0,62.1,97,30.13,1.5,WSW,3.5,-,0.07,Rain,Light Rain,250,2014-01-11 00:14:00
7:29 PM,63.0,61.0,93,30.13,2.5,Calm,Calm,-,0.11,Rain,Light Rain,0,2014-01-11 00:29:00
7:38 PM,63.0,62.1,97,30.14,4.0,SE,3.5,-,0.11,,Overcast,140,2014-01-11 00:38:00
7:54 PM,63.0,62.1,97,30.13,2.5,West,3.5,-,0.13,Rain,Light Rain,260,2014-01-11 00:54:00
8:05 PM,62.1,62.1,100,30.13,3.0,SW,3.5,-,0.01,Rain,Light Rain,230,2014-01-11 01:05:00
8:19 PM,62.1,62.1,100,30.13,2.5,WSW,3.5,-,0.02,Rain,Light Rain,250,2014-01-11 01:19:00
8:23 PM,63.0,62.1,97,30.12,1.5,Calm,Calm,-,0.02,Rain,Light Rain,0,2014-01-11 01:23:00
8:33 PM,63.0,62.1,97,30.13,1.8,South,3.5,-,0.03,Rain,Light Rain,170,2014-01-11 01:33:00
8:39 PM,63.0,62.1,97,30.12,3.0,SE,5.8,-,0.03,,Overcast,140,2014-01-11 01:39:00
8:48 PM,62.6,62.6,100,30.12,1.8,SE,6.9,-,0.03,Rain,Light Rain,140,2014-01-11 01:48:00
8:54 PM,63.0,63.0,100,30.12,1.8,SE,8.1,-,0.04,Rain,Light Rain,140,2014-01-11 01:54:00
9:03 PM,64.0,63.0,96,30.12,3.0,SSE,6.9,-,0.00,Rain,Light Rain,150,2014-01-11 02:03:00
9:17 PM,64.0,64.0,100,30.13,8.0,South,3.5,-,0.00,,Overcast,190,2014-01-11 02:17:00
9:25 PM,64.0,64.0,100,30.13,9.0,South,6.9,-,0.00,,Overcast,190,2014-01-11 02:25:00
9:50 PM,64.4,64.4,100,30.12,2.5,SSW,6.9,-,0.00,,Overcast,200,2014-01-11 02:50:00
9:54 PM,64.9,64.0,97,30.12,3.0,SSW,5.8,-,0.00,,Overcast,200,2014-01-11 02:54:00
10:07 PM,64.9,64.0,97,30.12,2.5,SSW,4.6,-,N/A,,Overcast,200,2014-01-11 03:07:00
10:24 PM,64.9,64.0,97,30.12,1.8,SW,4.6,-,N/A,,Overcast,220,2014-01-11 03:24:00
10:51 PM,64.4,64.4,100,30.12,3.0,South,6.9,-,N/A,,Overcast,190,2014-01-11 03:51:00
10:52 PM,64.9,64.0,97,30.12,3.0,South,6.9,-,N/A,,Overcast,190,2014-01-11 03:52:00
11:08 PM,64.9,64.0,97,30.11,10.0,SSW,4.6,-,N/A,,Overcast,200,2014-01-11 04:08:00
11:51 PM,64.4,64.4,100,30.08,10.0,South,6.9,-,N/A,,Overcast,190,2014-01-11 04:51:00
11:54 PM,66.0,64.0,93,30.08,10.0,South,6.9,-,N/A,,Overcast,190,2014-01-11 04:54:00